| time (UTC) | temp C | wind direction | speed KPH | gust KPH | rain 1hr cm | rain 24hr cm | rain mn cm | humidity % | barometer mb |
| 20260506170020 | 6 | 302 | 8.0 | 20.9 | 0.00 | 0.00 | 0.00 | 50 | 1017.7 |
| 20260506164517 | 6 | 294 | 6.4 | 20.9 | 0.00 | 0.00 | 0.00 | 51 | 1017.6 |
| 20260506163014 | 5 | 295 | 12.9 | 20.9 | 0.00 | 0.00 | 0.00 | 51 | 1017.7 |
| 20260506161511 | 5 | 301 | 8.0 | 24.1 | 0.00 | 0.00 | 0.00 | 52 | 1017.7 |
| 20260506160010 | 5 | 329 | 9.7 | 22.5 | 0.00 | 0.00 | 0.00 | 52 | 1017.8 |
| 20260506154508 | 6 | 305 | 6.4 | 25.7 | 0.00 | 0.00 | 0.00 | 53 | 1017.6 |
| 20260506153007 | 5 | 327 | 3.2 | 11.3 | 0.00 | 0.00 | 0.00 | 56 | 1017.6 |
| 20260506151506 | 5 | 304 | 4.8 | 12.9 | 0.00 | 0.00 | 0.00 | 54 | 1017.4 |
| 20260506150058 | 5 | 310 | 6.4 | 19.3 | 0.00 | 0.00 | 0.00 | 56 | 1017.5 |
| 20260506144602 | 5 | 308 | 4.8 | 11.3 | 0.00 | 0.00 | 0.00 | 58 | 1017.3 |
| 20260506143030 | 5 | 304 | 6.4 | 14.5 | 0.00 | 0.00 | 0.00 | 58 | 1017.3 |
| 20260506141529 | 5 | 301 | 3.2 | 12.9 | 0.00 | 0.00 | 0.00 | 60 | 1017.4 |
| 20260506140011 | 4 | 295 | 4.8 | 11.3 | 0.00 | 0.00 | 0.00 | 61 | 1017.2 |
| 20260506134511 | 4 | 306 | 1.6 | 9.7 | 0.00 | 0.00 | 0.00 | 61 | 1017.3 |
| 20260506133118 | 3 | 262 | 4.8 | 9.7 | 0.00 | 0.00 | 0.00 | 60 | 1017.2 |
| 20260506131551 | 3 | 284 | 0.0 | 9.7 | 0.00 | 0.00 | 0.00 | 65 | 1017.1 |
| 20260506130032 | 3 | 290 | 0.0 | 4.8 | 0.00 | 0.00 | 0.00 | 66 | 1017.0 |
| 20260506124529 | 2 | 304 | 0.0 | 3.2 | 0.00 | 0.00 | 0.00 | 68 | 1016.8 |
| 20260506123009 | -17 | 0.0 | 0.0 | 0.00 | 0.00 | 0.00 | 1016.6 | ||
| 20260506121504 | -17 | 0.0 | 0.0 | 0.00 | 0.00 | 0.00 | 1016.6 | ||
| 20260506120106 | -17 | 0.0 | 0.0 | 0.00 | 0.00 | 0.00 | 1016.4 | ||
| 20260506114538 | -17 | 0.0 | 0.0 | 0.00 | 0.00 | 0.00 | 1016.3 | ||
| 20260506113038 | -17 | 0.0 | 0.0 | 0.00 | 0.00 | 0.00 | 1015.8 | ||
| 20260506111512 | -17 | 0.0 | 0.0 | 0.00 | 0.00 | 0.00 | 1015.8 | ||
| 20260506110009 | 0 | 336 | 0.0 | 1.6 | 0.00 | 0.00 | 0.00 | 72 | 1015.6 |
| 20260506104559 | 1 | 330 | 0.0 | 4.8 | 0.00 | 0.00 | 0.00 | 71 | 1015.3 |
| 20260506103049 | 1 | 341 | 0.0 | 4.8 | 0.00 | 0.00 | 0.00 | 70 | 1015.2 |
| 20260506101534 | 1 | 308 | 0.0 | 3.2 | 0.00 | 0.00 | 0.00 | 71 | 1015.6 |
| 20260506100034 | 1 | 285 | 0.0 | 1.6 | 0.00 | 0.00 | 0.00 | 71 | 1015.6 |
| 20260506094514 | 0 | 285 | 0.0 | 3.2 | 0.00 | 0.00 | 0.00 | 72 | 1015.5 |
| 20260506093011 | 0 | 278 | 0.0 | 3.2 | 0.00 | 0.00 | 0.00 | 71 | 1015.4 |
| 20260506091551 | 1 | 279 | 0.0 | 3.2 | 0.00 | 0.00 | 0.00 | 69 | 1015.4 |
| 20260506090050 | 1 | 311 | 0.0 | 3.2 | 0.00 | 0.00 | 0.00 | 68 | 1015.2 |
| 20260506084539 | 1 | 330 | 0.0 | 4.8 | 0.00 | 0.00 | 0.00 | 68 | 1014.7 |
| 20260506083034 | 1 | 310 | 0.0 | 3.2 | 0.00 | 0.00 | 0.00 | 68 | 1014.9 |
| 20260506081531 | 1 | 310 | 0.0 | 0.0 | 0.00 | 0.00 | 0.00 | 68 | 1014.7 |
| 20260506073026 | 1 | 310 | 0.0 | 1.6 | 0.00 | 0.00 | 0.00 | 67 | 1014.8 |
| 20260506071525 | 1 | 310 | 0.0 | 0.0 | 0.00 | 0.00 | 0.00 | 67 | 1014.6 |
| 20260506061549 | 2 | 326 | 3.2 | 8.0 | 0.00 | 0.00 | 0.00 | 61 | 1014.5 |
| 20260506044543 | 4 | 330 | 3.2 | 8.0 | 0.00 | 0.00 | 0.00 | 55 | 1013.7 |
| 20260506043024 | 5 | 320 | 4.8 | 11.3 | 0.00 | 0.00 | 0.00 | 54 | 1013.8 |
| 20260506041503 | 5 | 311 | 6.4 | 12.9 | 0.00 | 0.00 | 0.00 | 52 | 1013.9 |
| 20260506040100 | 6 | 338 | 4.8 | 12.9 | 0.00 | 0.00 | 0.00 | 51 | 1013.7 |
| 20260506040001 | 6 | 334 | 4.8 | 12.9 | 0.00 | 0.00 | 0.00 | 51 | 1013.8 |
| 20260506034555 | 6 | 311 | 6.4 | 16.1 | 0.00 | 0.00 | 0.00 | 50 | 1013.6 |
| 20260506033036 | 6 | 319 | 8.0 | 19.3 | 0.00 | 0.00 | 0.00 | 49 | 1013.4 |
| 20260506031527 | 7 | 342 | 9.7 | 16.1 | 0.00 | 0.00 | 0.00 | 48 | 1013.4 |
| 20260506030011 | 7 | 340 | 8.0 | 17.7 | 0.00 | 0.00 | 0.00 | 47 | 1013.3 |
| 20260506024555 | 7 | 335 | 6.4 | 14.5 | 0.00 | 0.00 | 0.00 | 46 | 1013.1 |
| 20260506023057 | 7 | 347 | 8.0 | 20.9 | 0.00 | 0.00 | 0.00 | 46 | 1012.7 |
| 20260506021531 | 8 | 323 | 14.5 | 25.7 | 0.00 | 0.00 | 0.00 | 44 | 1012.5 |
| 20260506020030 | 8 | 304 | 4.8 | 12.9 | 0.00 | 0.00 | 0.00 | 44 | 1012.3 |
| 20260506014507 | 8 | 349 | 6.4 | 16.1 | 0.00 | 0.00 | 0.00 | 43 | 1012.0 |
| 20260506013006 | 8 | 279 | 9.7 | 19.3 | 0.00 | 0.00 | 0.00 | 40 | 1011.8 |
| 20260506011545 | 8 | 297 | 6.4 | 19.3 | 0.00 | 0.00 | 0.00 | 40 | 1011.7 |
| 20260506010053 | 9 | 329 | 12.9 | 24.1 | 0.00 | 0.00 | 0.00 | 39 | 1011.5 |
| 20260506004522 | 9 | 302 | 6.4 | 19.3 | 0.00 | 0.00 | 0.00 | 38 | 1011.3 |
| 20260506003022 | 10 | 309 | 9.7 | 22.5 | 0.00 | 0.00 | 0.00 | 38 | 1011.3 |
| 20260506001606 | 10 | 340 | 8.0 | 20.9 | 0.00 | 0.00 | 0.00 | 38 | 1011.1 |
| 20260506000059 | 10 | 311 | 6.4 | 22.5 | 0.00 | 0.00 | 0.00 | 37 | 1010.9 |
| 20260505234539 | 10 | 321 | 8.0 | 20.9 | 0.00 | 0.00 | 0.00 | 37 | 1010.8 |
| 20260505233045 | 10 | 345 | 12.9 | 20.9 | 0.00 | 0.00 | 0.00 | 36 | 1010.7 |
| 20260505231520 | 10 | 316 | 8.0 | 17.7 | 0.00 | 0.00 | 0.00 | 36 | 1010.7 |
| 20260505230025 | 11 | 300 | 8.0 | 22.5 | 0.00 | 0.00 | 0.00 | 35 | 1010.7 |
| 20260505224501 | 11 | 307 | 8.0 | 20.9 | 0.00 | 0.00 | 0.00 | 34 | 1010.6 |
| 20260505223004 | 11 | 307 | 9.7 | 24.1 | 0.00 | 0.00 | 0.00 | 35 | 1010.6 |
| 20260505221544 | 11 | 307 | 12.9 | 30.6 | 0.00 | 0.00 | 0.00 | 35 | 1010.5 |
| 20260505220043 | 11 | 292 | 9.7 | 19.3 | 0.00 | 0.00 | 0.00 | 36 | 1010.5 |
| 20260505214524 | 11 | 331 | 9.7 | 25.7 | 0.00 | 0.00 | 0.00 | 33 | 1010.5 |
| 20260505213027 | 11 | 322 | 8.0 | 25.7 | 0.00 | 0.00 | 0.00 | 34 | 1010.5 |
| 20260505211504 | 11 | 301 | 6.4 | 25.7 | 0.00 | 0.00 | 0.00 | 35 | 1010.7 |
| 20260505210003 | 11 | 300 | 9.7 | 20.9 | 0.00 | 0.00 | 0.00 | 35 | 1010.7 |
| 20260505204550 | 11 | 327 | 4.8 | 24.1 | 0.00 | 0.00 | 0.00 | 36 | 1010.7 |
| 20260505203049 | 11 | 309 | 4.8 | 17.7 | 0.00 | 0.00 | 0.00 | 37 | 1010.8 |
| 20260505201555 | 11 | 291 | 4.8 | 35.4 | 0.00 | 0.00 | 0.00 | 39 | 1010.9 |
| 20260505200047 | 11 | 290 | 8.0 | 20.9 | 0.00 | 0.00 | 0.00 | 38 | 1010.9 |
| 20260505194548 | 11 | 293 | 8.0 | 19.3 | 0.00 | 0.00 | 0.00 | 37 | 1010.9 |
| 20260505193046 | 11 | 287 | 4.8 | 25.7 | 0.00 | 0.00 | 0.00 | 38 | 1011.0 |
| 20260505191600 | 11 | 307 | 8.0 | 20.9 | 0.00 | 0.00 | 0.00 | 37 | 1010.9 |
| 20260505190054 | 11 | 311 | 3.2 | 16.1 | 0.00 | 0.00 | 0.00 | 37 | 1011.0 |
| 20260505184520 | 11 | 300 | 6.4 | 20.9 | 0.00 | 0.00 | 0.00 | 37 | 1011.1 |
| 20260505183017 | 10 | 306 | 6.4 | 16.1 | 0.00 | 0.00 | 0.00 | 39 | 1011.1 |
| 20260505181558 | 10 | 276 | 1.6 | 14.5 | 0.00 | 0.00 | 0.00 | 41 | 1011.2 |
| 20260505180056 | 10 | 332 | 6.4 | 12.9 | 0.00 | 0.00 | 0.00 | 40 | 1011.1 |
| 20260505174538 | 10 | 310 | 8.0 | 19.3 | 0.00 | 0.00 | 0.00 | 43 | 1011.2 |
| 20260505173046 | 9 | 316 | 4.8 | 14.5 | 0.00 | 0.00 | 0.00 | 45 | 1011.1 |
| 20260505171521 | 9 | 293 | 6.4 | 24.1 | 0.00 | 0.00 | 0.00 | 44 | 1011.1 |